Regional Weather Roundup
Issued by NWS Newport/Morehead, NC

Current Version | Previous Version | Graphics & Text | Print | Product List | Glossary Off
Versions: 1 2 3 4 5 6 7 8 9 10 11 12 13 14 15 16 17 18 19 20 21 22 23 24 25 26 27 28 29 30 31 32 33 34 35 36 37 38 39 40 41 42 43 44 45 46 47 48 49 50

000
ASUS42 KMHX 281313
RWRMHX
WEATHER ROUNDUP FOR EASTERN NORTH CAROLINA
NATIONAL WEATHER SERVICE NEWPORT/MOREHEAD CITY NC
900 AM EDT WED JUN 28 2017

NOTE: "FAIR" INDICATES FEW OR NO CLOUDS BELOW 12,000 FEET
WITH NO SIGNIFICANT WEATHER AND/OR OBSTRUCTIONS TO VISIBILITY

NCZ015>017-031-032-045>047-102-103-281400-
NORTH COAST

CITY           SKY/WX    TMP DP  RH WIND       PRES   REMARKS
EDENTON        SUNNY     72  57  58 NE7       30.18R
ELIZABETH CITY SUNNY     73  59  61 NE14      30.18R
KITTY HAWK     SUNNY     73  62  67 NE9G18    30.15R
MANTEO         SUNNY     73  63  70 NE17      30.16R

$$

NCZ045>047-081-094-103-104-281400-
CENTRAL COAST

CITY           SKY/WX    TMP DP  RH WIND       PRES   REMARKS
FRISCO         NOT AVBL

$$

NCZ095-097-098-100-101-281400-
SOUTHERN COAST

CITY           SKY/WX    TMP DP  RH WIND       PRES   REMARKS
BEAUFORT       SUNNY     78  65  63 N9        30.16R
CEDAR ISLAND   NOT AVBL
JACKSONVILLE   MOSUNNY   75  59  57 NE6       30.17R
PINEY ISLAND   SUNNY    N/A N/A N/A N12       30.16R
WILMINGTON     SUNNY     76  58  53 NE9       30.17R


$$

NCZ011>013-027>030-043-044-078>080-089-090>093-098-281400-
COASTAL PLAIN

CITY           SKY/WX    TMP DP  RH WIND       PRES   REMARKS
AHOSKIE          N/A     69  56  65 N6        30.19R
CLINTON        NOT AVBL
ELIZABETHTOWN  NOT AVBL
GOLDSBORO      SUNNY     71  57  61 NE10      30.17R
GREENVILLE     SUNNY     70  57  64 N6        30.19R
HAVELOCK       SUNNY     77  59  53 N7        30.17R
KENANSVILLE    SUNNY     70  61  73 NE5       30.19R
KINSTON        SUNNY     72  59  64 NE7       30.19R
NEW BERN       SUNNY     72  61  68 N7        30.18R
RICHLANDS      SUNNY     73  60  63 N6        30.18R
ROCKY MOUNT    SUNNY     72  55  55 NE9       30.19R
WASHINGTON     SUNNY    N/A N/A N/A NE8       30.18R
WHITEVILLE     SUNNY     73  60  63 NE3       30.17R

$$

AMZ130-135-150-152-154-156-158-170-250-252-270-ANZ085-086-088-633-658-670-281400-
MARINE OBSERVATIONS

STATION/POSITION TIME  TEMP    WIND        PRES    WAVE   SWELL
                       AIR SEA DIR/SP/G            HT/PER HT/PER
                 (UTC) (F)     (DEG/KT/KT) (MB)    (FT/S) (FT/S)
CHESAPEAKE LIGHT NOT AVBL
64 E VA BEACH    1250   71 74   20/ 14/ 16 1021.4    3/ 4
DUCK             1248   72 74   20/ 18/ 21 1021.2
2 E DUCK         NOT AVBL
OREGON INLET     1242   74 74  360/ 10/ 13 1020.9
13E OREGON INLT  1248      74                N/A     2/ 7   2/ 7
HATTERAS CG      1248   77 78   10/ 10/ 12 1020.8
DIAMOND BUOY     1250   76 80  360/ 10/ 12 1020.6    2/ 8   2/ 8
CAPE LOOKOUT     1200   76      10/ 10/ 13 1020.2
BEAUFORT LAB     1248   75 78   20/  9/ 12 1020.5
30 SE NEW RVR IN 1208   77 80   50/ 12/ 16 1020.5
30 SE NEW RVR IN 1243      80                N/A     3/ 4
27 SE WRIGHTSVLE 1208   79 80   70/ 14/ 19 1020.2
5 SE WRIGHTSVLE  1208   76 79   40/ 12/ 17 1020.6
225 S CAPE HAT   1250   79 80   10/ 10/ 10 1019.0    3/ 7   2/ 7
41 SE CHARLESTON 1250   79 81   50/ 14/ 16 1019.9    2/ 8   2/ 8

$$




USA.gov is the U.S. government's official web portal to all federal, state and local government web resources and services.